Location: A�n Tagdout
(32.8875°N, 5.5475°W)
Time: 12:56:27
(UTC+00:00)

Daily predictions for brighter satellites

Satellite Brightness Start Highest point End
(mag) Time Altitude Azimuth Time Altitude Azimuth Time Altitude Azimuth
CZ-4B R/B 3.5 18:09:04 10° S 18:14:37 80° WSW 18:20:17 10° NNW
SMAP 3.8 18:11:14 10° S 18:15:48 59° W 18:20:24 10° NNW
Hubble Space Telescope 3.0 18:14:19 10° WSW 18:17:34 22° SSW 18:20:49 10° SE
Cosmos 44 Rocket 4.1 18:13:22 10° S 18:17:37 32° ESE 18:22:02 10° NE
Cosmos 1627 Rocket 4.5 18:16:36 10° S 18:22:43 67° E 18:28:55 10° NNE
Cosmos 1626 Rocket 4.4 18:19:19 10° SSW 18:23:36 54° W 18:27:57 10° N
Cosmos 405 3.8 18:22:36 10° NNE 18:25:42 29° ENE 18:28:47 10° SE
ARGOS 4.5 18:22:46 10° ESE 18:26:09 17° ENE 18:29:33 10° NNE
Cosmos 1455 3.0 18:22:36 10° NNW 18:26:22 56° W 18:30:08 10° S
Cosmos 372 Rocket 4.0 18:26:02 10° S 18:31:08 64° ESE 18:36:19 10° NNE
Cosmos 1092 Rocket 4.1 18:25:26 10° S 18:31:36 81° W 18:37:47 10° N
BREEZE-M DEB (TANK) 3.9 18:33:18 10° SSE 18:34:00 11° SE 18:34:39 10° SE
Cosmos 1328 4.3 18:30:22 10° SSW 18:34:18 65° W 18:38:16 10° N
BREEZE-M DEB (TANK) 2.9 18:33:03 10° WNW 18:35:25 44° SW 18:37:46 10° SSE
CZ-2D R/B 3.2 18:33:01 10° SSE 18:36:48 60° ENE 18:40:34 10° N
PSLV R/B 4.1 18:33:25 10° NNE 18:37:32 51° E 18:41:35 10° S
Milstar 3 4.4 18:27:29 10° SW 18:37:53 35° SSE 18:44:24 11° E
SAR-Lupe-1 4.3 18:36:39 10° NNE 18:40:08 47° E 18:43:35 10° S
CZ-4B R/B 2.6 18:37:52 10° N 18:40:57 41° WNW 18:43:56 10° SSW
CZ-2C R/B 3.7 18:38:11 10° NE 18:42:48 26° E 18:47:22 10° SSE
Cosmos 1680 Rocket 3.9 18:37:39 10° NNW 18:42:50 69° WSW 18:47:58 10° S
EXPRESS MD2 4.4 18:39:19 10° NW 18:46:00 58° SW 18:49:24 10° SSE
Meteor 1-11 4.2 18:41:23 10° S 18:47:05 88° E 18:52:45 10° N
MOS 1 Rocket 3.5 18:44:43 10° N 18:48:59 65° WNW 18:53:22 10° SSW
Cosmos 1758 Rocket 3.8 18:45:53 10° S 18:50:18 75° W 18:54:48 10° N
Cosmos-2242 3.2 18:46:24 10° N 18:50:34 48° E 18:54:46 10° SSE
Cosmos 2098 Rocket 4.5 18:46:25 10° S 18:53:42 85° W 19:01:05 10° N
COSMO-SKYMED 1 3.8 18:50:08 10° N 18:54:14 42° WNW 18:58:19 10° SW
Meteor 2-15 4.4 18:48:36 10° N 18:54:41 61° E 19:00:43 10° SSE
Meteor 2-8 Rocket 4.5 18:50:56 10° N 18:57:04 86° W 19:03:12 10° S
USA 276 2.0 18:54:14 10° SW 18:57:25 80° SE 18:58:53 29° NE
CZ-4 R/B 4.5 18:53:43 10° S 18:57:51 85° WSW 19:02:00 10° NNW
USA 290 2.5 18:55:24 10° N 18:58:26 41° ENE 19:01:27 10° SE
Helios 1A Rocket 3.3 18:58:49 10° SE 19:02:40 39° ENE 19:06:32 10° N
H-2A R/B 2.0 18:59:22 10° SSE 19:04:15 58° ENE 19:09:18 10° N
Cosmos 1125 Rocket 3.8 19:00:10 10° S 19:05:05 44° ESE 19:08:41 18° NE
NOSS 3-1 (C) 4.3 18:57:03 10° NNW 19:05:06 87° WSW 19:14:06 10° SSE
Cosmos 2298 Rocket 3.9 19:02:22 10° S 19:07:39 75° ESE 19:12:58 10° NNE
Cosmos 2266 Rocket 4.2 19:03:58 10° SSE 19:09:51 44° E 19:15:39 10° NNE
Cosmos 1833 Rocket 2.6 19:06:21 10° NNW 19:11:57 69° ENE 19:17:32 10° SSE
YAOGAN 1 2.4 19:08:16 10° SSE 19:12:34 76° ENE 19:16:53 10° N
SJ-11-01 4.1 19:11:10 10° SSE 19:15:49 69° ENE 19:20:27 10° N
Cosmos 1689 Rocket 3.5 19:14:01 10° N 19:16:39 35° WNW 19:19:15 10° SW
In-Cosmos 22 Rocket 4.2 19:13:45 10° S 19:19:31 68° E 19:25:12 10° NNE
USA 267 4.1 19:19:53 27° E 19:21:24 30° SE 19:26:57 10° S
ASTRO E2 3.2 19:17:41 10° WSW 19:21:28 44° SSE 19:22:11 39° SE
Cosmos 1943 Rocket 2.8 19:18:36 10° SSE 19:23:18 33° ESE 19:23:18 33° ESE
X-37B 2.8 19:22:40 10° NNW 19:23:55 17° N 19:23:55 17° N
OAO 3 Rocket 4.1 19:21:54 10° SW 19:26:22 35° SSE 19:27:13 32° SE
USA 229 DEB 4.0 19:18:53 10° NNW 19:26:24 86° WSW 19:34:12 10° SSE
USA 229 3.9 19:18:59 10° NNW 19:26:31 87° WSW 19:34:19 10° SSE
Meteor 2-15 Rocket 4.4 19:21:37 10° N 19:27:47 90° W 19:33:56 10° S
Cosmos 1417 Rocket 4.4 19:22:00 10° N 19:28:17 80° E 19:34:36 10° S
CZ-4 R/B 2.4 19:27:17 10° S 19:31:13 48° W 19:35:05 10° NNW
Cosmos 1553 Rocket 4.0 19:25:04 10° N 19:31:27 83° W 19:37:42 10° S
COSMOS 2406 3.5 19:25:56 10° NNW 19:31:39 68° WSW 19:37:19 10° S
Cosmos 2082 Rocket 2.3 19:26:24 10° N 19:31:58 52° ENE 19:33:42 39° ESE
Meteor 2-21 4.3 19:29:22 10° S 19:35:23 71° E 19:41:29 10° N
Meteor 1-27 4.2 19:30:16 10° N 19:35:51 81° W 19:41:23 10° S
Delta 2 Rocket 3.9 19:34:32 10° SW 19:37:00 37° SSW 19:37:00 37° SSW
Okean-O 3.6 19:35:53 10° S 19:40:09 48° W 19:44:26 10° NNW
Cosmos 2369 Rocket 4.1 19:35:44 10° SSE 19:36:44 14° SSE 19:36:44 14° SSE
CSL-04 Rocket 3.5 19:35:23 10° SSE 19:40:47 82° ENE 19:46:18 10° N
Cosmos 2058 4.4 19:37:12 10° S 19:39:05 25° SSE 19:39:05 25° SSE
NOSS 3-1 (A) 4.3 19:34:13 10° NNW 19:42:18 81° WSW 19:51:17 10° SSE
Meteor 2-14 Rocket 4.3 19:37:22 10° S 19:43:23 80° E 19:49:29 10° N
Cosmos 1408 4.2 19:45:40 10° SSW 19:47:20 26° SSW 19:47:20 26° SSW
Cosmos 1892 3.8 19:48:00 10° SSW 19:51:35 43° W 19:52:26 36° NW
Cosmos 1655 Rocket 4.4 19:46:53 10° SSW 19:53:01 62° W 19:59:11 10° N
S3M 4.1 19:51:49 10° N 19:57:55 73° W 20:04:02 10° S
Meteor 2-21 Rocket 4.3 19:52:25 10° S 19:58:28 84° E 20:01:13 35° N
Lacrosse 5 rocket 3.1 19:57:49 10° SSW 20:00:06 28° SSW 20:00:06 28° SSW
ARGOS 3.9 20:00:47 10° S 20:05:57 50° W 20:11:09 10° NNW
Meteor 2-2 Rocket 4.4 20:11:42 10° N 20:24:36 - S 20:17:28 76° WNW
CZ-2C R/B 4.2 20:18:00 10° N 20:23:02 35° WNW 20:28:03 10° SW
ATLAS 3B CENTAUR R/B 4.2 20:21:35 10° SW 20:21:55 11° SSW 20:21:55 11° SSW
ATLAS 5 CENTAUR R/B 4.2 20:02:36 10° SSW 20:37:07 90° WNW 20:39:15 62° NNE
USA 267 4.5 21:07:15 36° WSW 21:07:15 36° WSW 21:10:58 10° WSW
Cosmos 1943 Rocket 4.3 21:02:30 10° WSW 21:04:55 21° W 21:04:55 21° W
Milstar 3 4.3 21:13:43 10° WSW 21:17:59 32° WSW 21:17:59 32° WSW
